Flag for U.S.A. Weather past 2 weeks in San Bernardino, California, U.S.A.

Now
65 °F

Clear.


Feels Like: 65 °F
Forecast: 61 / 88 °F
Wind: No wind

Location: Riverside Municipal Airport

Current Time: Aug 21, 2014 at 4:16:09 AM

Latest Report: Aug 21, 2014 at 3:53 AM


Visibility: 10 mi

Pressure: 29.89 "Hg

Humidity: 87%

Dew point: 61 °F

Location of San BernardinoLocation

Historic Weather in San Bernardino — Graph

°F

San Bernardino temperature yesterday

Maximum temperature yesterday: 82 °F (at 12:53 PM)
Minimum temperature yesterday: 64 °F (at 5:53 AM)
Average temperature yesterday: 71 °F

Past Weeks' High & Low Weather Summary

 TemperatureHumidityPressure
High98 °F (Aug 15, 2:53 PM)93% (Aug 6, 6:53 AM)30.03 "Hg (Aug 6, 6:53 AM)
Low61 °F (Aug 6, 5:53 AM)17% (Aug 16, 9:53 AM)29.72 "Hg (Aug 18, 3:53 PM)
Average77 °F56%29.89 "Hg
* Reported Aug 6 2:53 AM — Aug 21 2:53 AM, San Bernardino, Weather by CustomWeather, © 2014

Note: Actual official high and low records may vary slightly from our data, if they occured in-between our weather recording intervals... More about our weather records

Advertising

San Bernardino weather history for previous 24 hours

 ConditionsComfort  
Time TempWeatherWind HumidityBarometerVisibility
2:53 AM
Aug 21
66 °FPassing clouds.No wind84%29.89 "Hg10 mi
1:53 AM67 °FClear.No wind79%29.89 "Hg10 mi
12:53 AM67 °FClear.3 mph79%29.89 "Hg10 mi
11:53 PM
Aug 20
68 °FClear.5 mph76%29.89 "Hg10 mi
10:53 PM70 °FClear.5 mph71%29.88 "Hg10 mi
9:53 PM71 °FClear.No wind71%29.88 "Hg10 mi
8:53 PM71 °FClear.6 mph71%29.87 "Hg10 mi
7:53 PM74 °FPassing clouds.6 mph64%29.85 "Hg10 mi
6:53 PM77 °FScattered clouds.No wind66%29.83 "Hg10 mi
5:53 PM75 °FThundershowers. Partly sunny.6 mph69%29.84 "Hg10 mi
4:53 PM72 °FThundershowers. Partly sunny.7 mph81%29.85 "Hg10 mi
3:53 PM73 °FThundershowers. Partly sunny.7 mph66%29.85 "Hg10 mi
2:53 PM74 °FThundershowers. Partly sunny.6 mph71%29.86 "Hg10 mi
2:03 PM80 °FThunderstorms. Overcast.13 mph47%29.92 "Hg3 mi
1:53 PM82 °FThundershowers. Partly sunny.No wind37%29.87 "Hg10 mi
12:53 PM82 °FScattered clouds.6 mph35%29.88 "Hg10 mi
11:53 AM78 °FPartly sunny.5 mph46%29.89 "Hg10 mi
10:53 AM75 °FScattered clouds.5 mph55%29.91 "Hg10 mi
9:53 AM72 °FPassing clouds.5 mph66%29.91 "Hg10 mi
8:53 AM68 °FScattered clouds.No wind76%29.91 "Hg10 mi
7:53 AM66 °FPartly sunny.No wind78%29.90 "Hg10 mi
6:53 AM64 °FPassing clouds.No wind84%29.88 "Hg9 mi
5:53 AM64 °FPassing clouds.3 mph84%29.86 "Hg10 mi
4:53 AM65 °FPassing clouds.No wind81%29.86 "Hg10 mi
Weather by CustomWeather, © 2014

See weather overviewHow to use our weather pages